Poker QiuQiu Online Indonesia | Situs Judi Domino Ceme Uang Asli Terpercaya

1 User ID Untuk Semua Game: Live Casino, Bola, Poker & Slots
Agen Judi Bola Online Bonus Deposit
Google+

Jackpot

Texas Poker Multi Jackpot System

Kini Telah hadir Jackpot SUPER ROYAL FLUSH

Kini Telah hadir Jackpot 2000 (khusus table VIP keatas).

Ikutilah global jackpot yang tersedia di system kami, dengan system jackpot terbaru dan pertama di indonesia, anda dapat membeli jackpot dengan harga 100 rupiah saja dan menangkan hadiahnya hingga puluhan juta rupiah.

Jackpot bukanlah suatu keharusan untuk dibeli, namun kami memberikan suatu fitur tambahan untuk member tercinta dari www.s78poker.com.

Terdapat tiga pilihan harga jackpot yang bisa anda beli yaitu :100,500,1000 dan 2000(khusus table VIP Keatas) rupiah.

Hadiah dari Multi jackpot system www.s78poker.com

  1. full house x 10 harga jackpot yang anda beli.
      (contoh:anda membeli 1000 maka:1000 X10 = 10.000)
  2. four of kind x 250 harga jackpot yang anda beli
      (contoh:anda membeli 1000 maka:1000 X250 = 250.000)
  3. Straight flush x 1200
      (contoh:anda membeli 1000 maka:1000 X1200 = 1.200.000)
  4. Royal flush x 10000 harga jackpot yang anda beli
      (contoh:anda membeli 1000 maka:1000 X10000 = 10.000.000)
  5. SUPER ROYAL FLUSH x 30000 harga jackpot yang anda beli
      (contoh:anda membeli 1000 maka:1000 X30000 = 30.000.000)

Kondisi kartu

  1. full house adalah kondisi kartu dimana kartu anda dan kartu tengah dengan total 7 kartu bisa mendapatkan nilai 5 kartu dengan kombinasi 1 tris(three of kind) dan 1 pair, contoh 3 kartu 10 dan 2 kartu 5
  2. Four of kind adalah kondisi kartu dimana kartu anda dan kartu tengah dengan total 7 kartu bisa mendapatkan nilai 5 kartu dengan kombinasi 4 kartu yang sama jumlah dan 1 kartu apapun juga contoh anda mendapatkan 4 buah kartu angka 3 dan 1 kartu apapun.
  3. Staright flush adalah kondisi kartu dimana kartu anda dan kartu tengah dengan total 7 kartu bisa mendapatkan nilai 5 kartu dengan kombinasi seri / staright dengan kembang yang sama contoh : urutan kartu dari angka 5, 6, 7, 8 , 9 10 dengan kembang yg sama misalnya as hati
  4. Royal flush adalah kondisi kartu dimana kartu anda dan kartu tengah dengan total 7 kartu bisa mendapatkan nilai 5 kartu dengan kombinasi seri / staright dengan kembang yang sama tetapi kartu tersebut haruslah dimulai dari 10. contoh 10, Queen, Jack, King dan aces dengan kembang yang sama
  5. Super Royal flush adalah kondisi kartu dimana Kedua kartu anda digabung dengan 3 kartu pertama meja haruslah royal flush. contoh kartu anda 10,Queen kembang sama dan 3 kartu pertama meja adalah Jack, King dan aces dengan kembang yang sama

Demikian adalah penjelasan dari Multi Jackpot www.s78poker.com terima kasih dan selamat bermain salam hoki dari kami

Texas Poker Jackpot Winner

TOP SUPER ROYAL FLUSH
No.TanggalNamaPriceWin
124/10 06:20MAM4Y0Super Royal flush30,000,000
223/10 23:21E3296E1FSuper Royal flush6,000,000
323/10 22:34AKBP85Super Royal flush60,000,000
423/10 22:03VID1995Super Royal flush3,000,000
523/10 20:44SUGARA92Super Royal flush15,000,000
TOP ROYAL FLUSH
No.TanggalNamaPriceWin
124/10 06:13GOLE_DUITRoyal flush10,000,000
224/10 05:44NANEK48Royal flush5,000,000
324/10 05:41BERILAH77Royal flush2,000,000
424/10 05:23IDV65170908Royal flush20,000,000
524/10 04:52BELENGTONRoyal flush1,000,000
TOP STRAIGHT FLUSH
No.TanggalNamaPriceWin
124/10 07:03KAE22Straight Flush600,000
224/10 06:53NILAM11Straight Flush600,000
324/10 06:51RICHPLOStraight Flush600,000
424/10 06:40MENREYYStraight Flush120,000
524/10 06:33DA92890CStraight Flush60,000
LATEST JACKPOT
No.TanggalNamaPriceWin
124/10 07:07MARIN99Full House10,000
224/10 07:07D71DE177Full House2,000
324/10 07:07E1133FB8Full House5,000
424/10 07:07SUBAIRI123Full House2,000
524/10 07:07VIOLA9898Full House5,000
624/10 07:07ARIANI33Four Of A Kind50,000
724/10 07:07B36015D2Full House5,000
824/10 07:07MEL_MELFull House20,000
924/10 07:06MITTERO23Full House2,000
1024/10 07:06BALO321Four Of A Kind125,000
1124/10 07:06PECISEFull House5,000
1224/10 07:06WAWANTMGFull House5,000
1324/10 07:06MAESTRO55Full House5,000
1424/10 07:06SHOGUN80Full House500
1524/10 07:06FREZIA121Full House2,000
1624/10 07:06C8790C64Full House5,000
1724/10 07:06SIRI889Full House1,000
1824/10 07:06HATIMBENFull House5,000
1924/10 07:06KAMBING190Full House5,000
2024/10 07:064S1K1NFull House5,000
2124/10 07:06M0M20Four Of A Kind50,000
2224/10 07:06B4RG4SSFull House10,000
2324/10 07:06Z3MBUT_88Full House1,000
2424/10 07:06RJPOK3RFull House2,000
2524/10 07:06POKER687Full House2,000
2624/10 07:06YUMNAAAFull House5,000
2724/10 07:06BATUNAK17Four Of A Kind500,000
2824/10 07:06IKHLAS888Full House2,000
2924/10 07:06MUSANK888Full House500
3024/10 07:05ANTUL26Full House5,000
3124/10 07:05HOKKYMBAHFull House5,000
3224/10 07:05BOED45Full House5,000
3324/10 07:05TEMPO83Full House1,000
3424/10 07:05PAIRI87Full House2,000
3524/10 07:05SETRA15Full House2,000
3624/10 07:05B36015D2Full House5,000
3724/10 07:05HJM11Full House2,000
3824/10 07:05D1KT3Full House20,000
3924/10 07:05RAPRAPFull House5,000
4024/10 07:05SAYATINFull House1,000
4124/10 07:05LUCKYANA22Full House20,000
4224/10 07:05D3LIM44Full House1,000
4324/10 07:05RANIA1Full House1,000
4424/10 07:05RJPOK3RFull House2,000
4524/10 07:04SLOWZAFull House2,000
4624/10 07:04BOYKA57Full House2,000
4724/10 07:04M4ST3R678Full House20,000
4824/10 07:04BANYAUFull House5,000
4924/10 07:04C3657915Full House5,000
5024/10 07:04ARARARARFull House2,000

Domino Multi Jackpot System

Ikutilah global jackpot yang tersedia di system kami, dengan system jackpot terbaru dan pertama di indonesia, anda dapat membeli jackpot dengan harga 100 rupiah saja dan menangkan hadiahnya hingga puluhan juta rupiah.

Jackpot bukanlah suatu keharusan untuk dibeli, namun kami memberikan suatu fitur tambahan untuk member tercinta dari www.s78poker.com.

Terdapat tiga pilihan harga jackpot yang bisa anda beli yaitu :100,500 dan 1000 rupiah.

Hadiah dari Multi jackpot system www.s78poker.com

  1. Murni Kecil x 50 harga jackpot yang anda beli.
      (contoh:anda membeli 1000 maka:1000 X 50 = 50.000)
  2. Murni Besar x 50 harga jackpot yang anda beli
      (contoh:anda membeli 1000 maka:1000 X 50 = 50.000)
  3. BALAK x 100 harga jackpot yang anda beli
      (contoh:anda membeli 1000 maka:1000 X 100 = 100.000)
  4. ENAM DEWA x 6666 harga jackpot yang anda beli
      (contoh:anda membeli 1000 maka:1000 X 6666 = 6.666.000)

Demikian adalah penjelasan dari Multi Jackpot www.s78poker.com terima kasih dan selamat bermain salam hoki dari kami

Domino Jackpot Winner

TOP ENAM DEWA
No.TanggalNamaPriceWin
124/10 03:36BAI88murni enam666,600
224/10 02:11GELLIS99murni enam666,600
324/10 02:07LEHO777murni enam3,333,000
424/10 01:07ITXTOJZFA7murni enam666,600
524/10 00:46IKENZ99murni enam6,666,000
TOP BALAK
No.TanggalNamaPriceWin
124/10 07:07USUF77balak100,000
224/10 07:00SUKSES99PKbalak10,000
324/10 06:58IWANSURYAAbalak10,000
424/10 06:55TOHEN99balak10,000
524/10 06:55NAOMI8888balak10,000
LATEST JACKPOT
No.TanggalNamaPriceWin
124/10 07:07USUF77balak100,000
224/10 07:05RUDAL37murni besar25,000
324/10 07:04HAER333murni besar50,000
424/10 07:03SU2UKImurni kecil5,000
524/10 07:01R4B1CONmurni besar50,000
624/10 07:00SUKSES99PKbalak10,000
724/10 07:00MUDALIPAH2murni kecil50,000
824/10 07:00AJIS7788murni besar50,000
924/10 06:58IWANSURYAAbalak10,000
1024/10 06:58T4DRYANSlucky9910,000
1124/10 06:55BIGBOSCLUBmurni kecil50,000
1224/10 06:55TOHEN99balak10,000
1324/10 06:55TOKKEHmurni kecil5,000
1424/10 06:55NAOMI8888balak10,000
1524/10 06:53BOCKY13murni besar50,000
1624/10 06:53BIGBOSCLUBmurni besar50,000
1724/10 06:52BOSCU01murni kecil25,000
1824/10 06:52TONGKOLSFAmurni kecil25,000
1924/10 06:51BLUESKY41murni besar50,000
2024/10 06:51LURDmurni besar25,000
2124/10 06:51GODAY05murni besar5,000
2224/10 06:48JASMET01murni besar50,000
2324/10 06:48WR_MORISmurni kecil25,000
2424/10 06:48GREZIZEXmurni kecil25,000
2524/10 06:46RENGIS97murni kecil50,000
2624/10 06:45T4DRYANSmurni kecil25,000
2724/10 06:44DENSUS8888murni kecil50,000
2824/10 06:44IKSAN999murni kecil50,000
2924/10 06:44BNIQQQ341murni besar50,000
3024/10 06:43BNC1PZUKRSbalak50,000
3124/10 06:41HAER333murni besar50,000
3224/10 06:40FRANSISC88murni kecil50,000
3324/10 06:39L1NC444Hmurni kecil25,000
3424/10 06:39HAMIL9BLNlucky9950,000
3524/10 06:39DAVIDCOYmurni besar50,000
3624/10 06:38GAMBLER707murni kecil25,000
3724/10 06:37KEMOT46murni besar25,000
3824/10 06:36VERYJUMEX8murni kecil50,000
3924/10 06:34MBAHE89balak100,000
4024/10 06:34TS4R1murni besar25,000
4124/10 06:33PIALAAmurni kecil50,000
4224/10 06:32ZOO112balak100,000
4324/10 06:32RUPE999balak100,000
4424/10 06:31MELANESIANmurni kecil50,000
4524/10 06:30KECAP56murni besar5,000
4624/10 06:29MELEHOY27murni besar25,000
4724/10 06:28DJ__LUCKYmurni besar50,000
4824/10 06:28NAOMI8888balak10,000
4924/10 06:28USUF77murni kecil50,000
5024/10 06:27R_VANS99murni kecil25,000

Ceme Multi Jackpot System

Jackpot dilihat dari gabungan kartu pemain dengan kartu bandar. Bandar harus membeli jackpot sebanyak jumlah player yang sedang duduk. Sebagai contoh bila terdapat 3 pemain duduk bermain, dan bandar memutuskan untuk membeli jackpot Rp 1.000, maka pada periode tersebut bandar akan membeli jackpot sebanyak 3xRp1.000 = Rp3.000.

Jackpot bukanlah suatu keharusan untuk dibeli, namun kami memberikan suatu fitur tambahan untuk member tercinta dari www.s78poker.com.

Terdapat tiga pilihan harga jackpot yang bisa anda beli yaitu :100,500 dan 1000 rupiah.

Hadiah dari Multi jackpot system www.s78poker.com

  1. Murni Kecil x 50 harga jackpot yang anda beli.
      (contoh:anda membeli 1000 maka:1000 X 50 = 50.000)
  2. Murni Besar x 50 harga jackpot yang anda beli
      (contoh:anda membeli 1000 maka:1000 X 50 = 50.000)
  3. BALAK x 200 harga jackpot yang anda beli
      (contoh:anda membeli 1000 maka:1000 X 200 = 200.000)
  4. ENAM DEWA x 6666 harga jackpot yang anda beli
      (contoh:anda membeli 1000 maka:1000 X 6666 = 6.666.000)

Demikian adalah penjelasan dari Multi Jackpot www.s78poker.com terima kasih dan selamat bermain salam hoki dari kami

Ceme Jackpot Winner

TOP ENAM DEWA
No.TanggalNamaPriceWin
124/10 06:12753murni enam666,600
224/10 05:08PEZE99murni enam3,333,000
324/10 04:54OOSOOmurni enam6,666,000
424/10 04:27JHODI07murni enam6,666,000
524/10 04:11YOGABOEGIKmurni enam3,333,000
TOP BALAK
No.TanggalNamaPriceWin
124/10 07:04OOSOObalak200,000
224/10 07:03CUPLIS04balak100,000
324/10 07:03SALAMUN08balak100,000
424/10 07:02JIDOR007balak200,000
524/10 06:59VIP58295balak20,000
LATEST JACKPOT
No.TanggalNamaPriceWin
124/10 07:06DJ3OE3IALOmurni kecil50,000
224/10 07:06SINTOPATImurni kecil25,000
324/10 07:05BC7AC3AFmurni kecil25,000
424/10 07:05LUCKYBRAMmurni kecil50,000
524/10 07:05KOHAGEmurni kecil5,000
624/10 07:04HASHUS123murni kecil5,000
724/10 07:04AMBONBONYmurni kecil50,000
824/10 07:04BETULMASmurni besar50,000
924/10 07:04OOSOObalak200,000
1024/10 07:04MULYO8murni kecil25,000
1124/10 07:04SAKU6murni besar50,000
1224/10 07:03PACIKABDULmurni besar25,000
1324/10 07:03CUPLIS04balak100,000
1424/10 07:03NANDO75murni kecil25,000
1524/10 07:03RAHMADZLDmurni kecil5,000
1624/10 07:03DHAMZmurni kecil25,000
1724/10 07:03SALAMUN08balak100,000
1824/10 07:03ERICSAR01murni kecil50,000
1924/10 07:03ERICSAR01murni kecil50,000
2024/10 07:03PAPAT12murni besar5,000
2124/10 07:02JIDOR007balak200,000
2224/10 07:02TOP88AKCmurni besar5,000
2324/10 07:02ERICSAR01murni kecil50,000
2424/10 07:01IDUTEAmurni kecil50,000
2524/10 07:01KIMBEKKmurni kecil50,000
2624/10 07:01PIDONG22murni kecil25,000
2724/10 07:01ANDEGRONmurni kecil25,000
2824/10 07:01BE60COOmurni besar50,000
2924/10 07:00SKW898murni kecil5,000
3024/10 07:00YOSIGETAmurni kecil50,000
3124/10 06:59ICEDAmurni kecil50,000
3224/10 06:59NOXA66murni kecil25,000
3324/10 06:59VIP58295balak20,000
3424/10 06:59ICEDAmurni besar50,000
3524/10 06:58JIAHHAAAmurni kecil50,000
3624/10 06:57ICEDAmurni kecil50,000
3724/10 06:56GAYUNG68murni kecil5,000
3824/10 06:56JIDOR007murni kecil50,000
3924/10 06:56CRJIME0IRBmurni kecil5,000
4024/10 06:56CUPLIS04murni besar25,000
4124/10 06:55OOSOOmurni kecil50,000
4224/10 06:55HAMOHmurni kecil5,000
4324/10 06:55OJODITIRUbalak200,000
4424/10 06:55ZHE012murni besar5,000
4524/10 06:54B058C67Emurni kecil50,000
4624/10 06:54XXKKOO188murni besar50,000
4724/10 06:54GAYUNG68murni kecil5,000
4824/10 06:54ABEGI22murni besar50,000
4924/10 06:54PIALAAmurni kecil25,000
5024/10 06:53PACIKABDULbalak100,000